Time,TemperatureF,DewpointF,PressureIn,WindDirection,WindDirectionDegrees,WindSpeedMPH,WindSpeedGustMPH,Humidity,HourlyPrecipIn,Conditions,Clouds,dailyrainin,SolarRadiationWatts/m^2,SoftwareType,DateUTC
2013-03-02 00:00:00,44.0,33.0,30.29,North,9,10.0,10.0,65,0.00,,---,0.00,0.00,VWS V14.01,2013-03-02 08:00:00,
2013-03-02 00:05:00,44.1,33.1,30.29,North,355,12.0,12.0,65,0.00,,---,0.00,0.00,VWS V14.01,2013-03-02 08:05:00,
2013-03-02 00:10:00,44.3,33.3,30.29,NNE,19,8.0,12.0,65,0.00,,---,0.00,0.00,VWS V14.01,2013-03-02 08:10:00,
2013-03-02 00:15:00,44.3,33.3,30.29,NNE,32,8.0,12.0,65,0.00,,---,0.00,0.00,VWS V14.01,2013-03-02 08:15:00,
2013-03-02 00:20:00,44.4,33.4,30.29,NE,55,9.0,12.0,65,0.00,,---,0.00,0.00,VWS V14.01,2013-03-02 08:20:00,
2013-03-02 00:25:00,44.5,33.1,30.29,NNE,15,5.0,12.0,64,0.00,,---,0.00,0.00,VWS V14.01,2013-03-02 08:25:00,
2013-03-02 00:30:00,44.4,33.0,30.28,NE,39,7.0,7.0,64,0.00,,---,0.00,0.00,VWS V14.01,2013-03-02 08:30:00,
2013-03-02 00:35:00,44.4,33.4,30.28,NNE,30,5.0,8.0,65,0.00,,---,0.00,0.00,VWS V14.01,2013-03-02 08:35:00,
2013-03-02 00:40:00,44.5,33.5,30.28,NNE,13,7.0,9.0,65,0.00,,---,0.00,0.00,VWS V14.01,2013-03-02 08:40:00,
2013-03-02 00:45:00,44.5,33.5,30.28,NNE,26,5.0,9.0,65,0.00,,---,0.00,0.00,VWS V14.01,2013-03-02 08:45:00,
2013-03-02 00:50:00,44.5,33.9,30.28,North,350,5.0,10.0,66,0.00,,---,0.00,0.00,VWS V14.01,2013-03-02 08:50:00,
2013-03-02 00:55:00,44.6,34.0,30.28,North,11,6.0,10.0,66,0.00,,---,0.00,0.00,VWS V14.01,2013-03-02 08:55:00,
2013-03-02 01:00:00,44.6,34.0,30.28,NE,40,9.0,9.0,66,0.00,,---,0.00,0.00,VWS V14.01,2013-03-02 09:00:00,
2013-03-02 01:05:00,44.6,34.3,30.28,North,349,5.0,9.0,67,0.00,,---,0.00,0.00,VWS V14.01,2013-03-02 09:05:00,
2013-03-02 01:10:00,44.7,34.4,30.28,NNE,19,6.0,10.0,67,0.00,,---,0.00,0.00,VWS V14.01,2013-03-02 09:10:00,
2013-03-02 01:15:00,44.7,34.0,30.28,NW,325,4.0,10.0,66,0.00,,---,0.00,0.00,VWS V14.01,2013-03-02 09:15:00,
2013-03-02 01:20:00,44.8,34.2,30.28,North,350,2.0,10.0,66,0.00,,---,0.00,0.00,VWS V14.01,2013-03-02 09:20:00,
2013-03-02 01:25:00,44.8,34.2,30.28,NW,317,3.0,10.0,66,0.00,,---,0.00,0.00,VWS V14.01,2013-03-02 09:25:00,
2013-03-02 01:30:00,44.7,34.0,30.27,NNE,21,3.0,3.0,66,0.00,,---,0.00,0.00,VWS V14.01,2013-03-02 09:30:00,
2013-03-02 01:35:00,44.6,34.0,30.27,NNE,19,5.0,9.0,66,0.00,,---,0.00,0.00,VWS V14.01,2013-03-02 09:35:00,
2013-03-02 01:40:00,44.5,33.9,30.27,NNW,333,4.0,9.0,66,0.00,,---,0.00,0.00,VWS V14.01,2013-03-02 09:40:00,
2013-03-02 01:45:00,44.4,34.1,30.27,NNW,332,6.0,9.0,67,0.00,,---,0.00,0.00,VWS V14.01,2013-03-02 09:45:00,
2013-03-02 01:50:00,44.2,34.0,30.27,NW,326,6.0,9.0,67,0.00,,---,0.00,0.00,VWS V14.01,2013-03-02 09:50:00,
2013-03-02 01:55:00,44.1,33.9,30.27,NNW,336,6.0,9.0,67,0.00,,---,0.00,0.00,VWS V14.01,2013-03-02 09:55:00,
2013-03-02 02:00:00,43.9,33.7,30.27,NE,46,2.0,3.0,67,0.00,,---,0.00,0.00,VWS V14.01,2013-03-02 10:00:00,
2013-03-02 02:05:00,43.6,33.8,30.26,NW,325,5.0,5.0,68,0.00,,---,0.00,0.00,VWS V14.01,2013-03-02 10:05:00,
2013-03-02 02:11:00,43.3,33.8,30.26,NE,38,3.0,6.0,69,0.00,,---,0.00,0.00,VWS V14.01,2013-03-02 10:11:00,
2013-03-02 02:16:00,43.1,34.0,30.26,NNE,22,5.0,10.0,70,0.00,,---,0.00,0.00,VWS V14.01,2013-03-02 10:16:00,
2013-03-02 02:21:00,42.9,33.8,30.26,NNE,23,5.0,10.0,70,0.00,,---,0.00,0.00,VWS V14.01,2013-03-02 10:21:00,
2013-03-02 02:26:00,42.7,33.6,30.26,NNE,33,4.0,10.0,70,0.00,,---,0.00,0.00,VWS V14.01,2013-03-02 10:26:00,
2013-03-02 02:31:00,42.5,33.4,30.25,NNE,20,3.0,7.0,70,0.00,,---,0.00,0.00,VWS V14.01,2013-03-02 10:31:00,
2013-03-02 02:36:00,42.4,33.3,30.25,NE,45,3.0,7.0,70,0.00,,---,0.00,0.00,VWS V14.01,2013-03-02 10:36:00,
2013-03-02 02:41:00,42.4,33.7,30.24,NE,40,3.0,7.0,71,0.00,,---,0.00,0.00,VWS V14.01,2013-03-02 10:41:00,
2013-03-02 02:46:00,42.6,33.5,30.24,North,5,7.0,7.0,70,0.00,,---,0.00,0.00,VWS V14.01,2013-03-02 10:46:00,
2013-03-02 02:51:00,42.8,33.3,30.24,NNW,337,3.0,8.0,69,0.00,,---,0.00,0.00,VWS V14.01,2013-03-02 10:51:00,
2013-03-02 02:56:00,43.3,33.5,30.23,NNE,21,9.0,9.0,68,0.00,,---,0.00,0.00,VWS V14.01,2013-03-02 10:56:00,
2013-03-02 03:01:00,43.5,33.3,30.23,NNE,14,6.0,7.0,67,0.00,,---,0.00,0.00,VWS V14.01,2013-03-02 11:01:00,
2013-03-02 03:06:00,43.8,33.6,30.22,NNE,23,7.0,10.0,67,0.00,,---,0.00,0.00,VWS V14.01,2013-03-02 11:06:00,
2013-03-02 03:11:00,43.9,33.3,30.22,NW,309,5.0,10.0,66,0.00,,---,0.00,0.00,VWS V14.01,2013-03-02 11:11:00,
2013-03-02 03:16:00,43.7,33.1,30.22,NNW,347,6.0,10.0,66,0.00,,---,0.00,0.00,VWS V14.01,2013-03-02 11:16:00,
2013-03-02 03:21:00,43.4,33.2,30.22,North,11,5.0,10.0,67,0.00,,---,0.00,0.00,VWS V14.01,2013-03-02 11:21:00,
2013-03-02 03:26:00,43.2,33.0,30.21,NNW,344,8.0,11.0,67,0.00,,---,0.00,0.00,VWS V14.01,2013-03-02 11:26:00,
2013-03-02 03:31:00,43.1,33.3,30.21,North,355,8.0,8.0,68,0.00,,---,0.00,0.00,VWS V14.01,2013-03-02 11:31:00,
2013-03-02 03:36:00,43.2,33.0,30.21,NNE,30,6.0,12.0,67,0.00,,---,0.00,0.00,VWS V14.01,2013-03-02 11:36:00,
2013-03-02 03:41:00,43.2,33.0,30.21,NNW,344,9.0,12.0,67,0.00,,---,0.00,0.00,VWS V14.01,2013-03-02 11:41:00,
2013-03-02 03:46:00,43.6,33.0,30.21,North,360,6.0,12.0,66,0.00,,---,0.00,0.00,VWS V14.01,2013-03-02 11:46:00,
2013-03-02 03:51:00,44.1,33.1,30.21,NNE,32,5.0,12.0,65,0.00,,---,0.00,0.00,VWS V14.01,2013-03-02 11:51:00,
2013-03-02 03:56:00,44.1,33.1,30.21,NNE,29,4.0,12.0,65,0.00,,---,0.00,0.00,VWS V14.01,2013-03-02 11:56:00,
2013-03-02 04:01:00,43.8,32.8,30.22,NE,50,5.0,6.0,65,0.00,,---,0.00,0.00,VWS V14.01,2013-03-02 12:01:00,
2013-03-02 04:06:00,43.1,32.5,30.22,NE,40,3.0,7.0,66,0.00,,---,0.00,0.00,VWS V14.01,2013-03-02 12:06:00,
2013-03-02 04:11:00,42.8,33.0,30.22,NNW,347,5.0,7.0,68,0.00,,---,0.00,0.00,VWS V14.01,2013-03-02 12:11:00,
2013-03-02 04:16:00,42.7,32.9,30.22,NNE,22,5.0,9.0,68,0.00,,---,0.00,0.00,VWS V14.01,2013-03-02 12:16:00,
2013-03-02 04:21:00,42.8,33.0,30.22,NNE,23,6.0,9.0,68,0.00,,---,0.00,0.00,VWS V14.01,2013-03-02 12:21:00,
2013-03-02 04:26:00,43.0,32.8,30.22,North,360,6.0,9.0,67,0.00,,---,0.00,0.00,VWS V14.01,2013-03-02 12:26:00,
2013-03-02 04:31:00,43.0,32.8,30.22,NNE,22,4.0,7.0,67,0.00,,---,0.00,0.00,VWS V14.01,2013-03-02 12:31:00,
2013-03-02 04:36:00,42.9,32.7,30.21,North,355,5.0,9.0,67,0.00,,---,0.00,0.00,VWS V14.01,2013-03-02 12:36:00,
2013-03-02 04:41:00,42.8,32.6,30.21,NNE,30,7.0,11.0,67,0.00,,---,0.00,0.00,VWS V14.01,2013-03-02 12:41:00,
2013-03-02 04:46:00,42.7,32.9,30.21,North,355,6.0,11.0,68,0.00,,---,0.00,0.00,VWS V14.01,2013-03-02 12:46:00,
2013-03-02 04:51:00,42.8,33.0,30.21,NE,42,5.0,11.0,68,0.00,,---,0.00,0.00,VWS V14.01,2013-03-02 12:51:00,
2013-03-02 04:56:00,43.0,32.8,30.21,NE,37,4.0,11.0,67,0.00,,---,0.00,0.00,VWS V14.01,2013-03-02 12:56:00,
2013-03-02 05:02:00,43.6,32.6,30.21,NNW,338,9.0,9.0,65,0.00,,---,0.00,0.00,VWS V14.01,2013-03-02 13:02:00,
2013-03-02 05:07:00,44.3,32.5,30.21,NNE,15,6.0,9.0,63,0.00,,---,0.00,0.00,VWS V14.01,2013-03-02 13:07:00,
2013-03-02 05:12:00,45.0,32.8,30.21,NE,48,6.0,9.0,62,0.00,,---,0.00,0.00,VWS V14.01,2013-03-02 13:12:00,
2013-03-02 05:17:00,45.5,32.8,30.21,NNE,31,4.0,9.0,61,0.00,,---,0.00,0.00,VWS V14.01,2013-03-02 13:17:00,
2013-03-02 05:22:00,45.8,32.7,30.20,NE,35,5.0,9.0,60,0.00,,---,0.00,0.00,VWS V14.01,2013-03-02 13:22:00,
2013-03-02 05:27:00,45.9,32.8,30.20,NNE,17,6.0,10.0,60,0.00,,---,0.00,0.00,VWS V14.01,2013-03-02 13:27:00,
2013-03-02 05:32:00,45.8,32.7,30.20,NE,53,5.0,9.0,60,0.00,,---,0.00,0.00,VWS V14.01,2013-03-02 13:32:00,
2013-03-02 05:37:00,45.5,32.8,30.20,NNE,24,6.0,9.0,61,0.00,,---,0.00,0.00,VWS V14.01,2013-03-02 13:37:00,
2013-03-02 05:42:00,45.1,32.9,30.20,North,350,5.0,10.0,62,0.00,,---,0.00,0.00,VWS V14.01,2013-03-02 13:42:00,
2013-03-02 05:47:00,44.9,33.1,30.20,NE,43,5.0,12.0,63,0.00,,---,0.00,0.00,VWS V14.01,2013-03-02 13:47:00,
2013-03-02 05:52:00,44.9,33.1,30.19,North,11,7.0,13.0,63,0.00,,---,0.00,0.00,VWS V14.01,2013-03-02 13:52:00,
2013-03-02 05:57:00,44.9,33.5,30.19,NE,39,7.0,13.0,64,0.00,,---,0.00,0.00,VWS V14.01,2013-03-02 13:57:00,
2013-03-02 06:02:00,44.6,33.2,30.19,North,5,8.0,11.0,64,0.00,,---,0.00,0.00,VWS V14.01,2013-03-02 14:02:00,
2013-03-02 06:07:00,44.3,33.3,30.19,NNE,16,6.0,13.0,65,0.00,,---,0.00,0.00,VWS V14.01,2013-03-02 14:07:00,
2013-03-02 06:12:00,43.9,33.3,30.19,NNE,32,5.0,13.0,66,0.00,,---,0.00,0.00,VWS V14.01,2013-03-02 14:12:00,
2013-03-02 06:17:00,43.2,33.0,30.19,NNE,33,7.0,13.0,67,0.00,,---,0.00,0.00,VWS V14.01,2013-03-02 14:17:00,
2013-03-02 06:22:00,42.6,32.8,30.19,NE,41,5.0,13.0,68,0.00,,---,0.00,0.00,VWS V14.01,2013-03-02 14:22:00,
2013-03-02 06:27:00,42.4,33.0,30.19,NNE,26,8.0,13.0,69,0.00,,---,0.00,0.00,VWS V14.01,2013-03-02 14:27:00,
2013-03-02 06:32:00,42.4,33.3,30.18,NNE,27,11.0,14.0,70,0.00,,---,0.00,0.00,VWS V14.01,2013-03-02 14:32:00,
2013-03-02 06:37:00,42.5,33.4,30.18,North,9,7.0,14.0,70,0.00,,---,0.00,0.00,VWS V14.01,2013-03-02 14:37:00,
2013-03-02 06:42:00,42.5,33.1,30.18,NNE,25,8.0,14.0,69,0.00,,---,0.00,0.00,VWS V14.01,2013-03-02 14:42:00,
2013-03-02 06:47:00,42.4,33.3,30.18,NNE,13,7.0,14.0,70,0.00,,---,0.00,0.00,VWS V14.01,2013-03-02 14:47:00,
2013-03-02 06:52:00,42.2,33.1,30.18,NNW,347,7.0,14.0,70,0.00,,---,0.00,7.00,VWS V14.01,2013-03-02 14:52:00,
2013-03-02 06:57:00,42.1,33.0,30.17,North,5,5.0,14.0,70,0.00,,---,0.00,12.00,VWS V14.01,2013-03-02 14:57:00,
2013-03-02 07:02:00,42.1,33.0,30.17,North,355,5.0,10.0,70,0.00,,---,0.00,16.00,VWS V14.01,2013-03-02 15:02:00,
2013-03-02 07:07:00,42.2,33.5,30.17,North,351,6.0,11.0,71,0.00,,---,0.00,19.00,VWS V14.01,2013-03-02 15:07:00,
2013-03-02 07:12:00,42.3,33.2,30.17,North,5,6.0,11.0,70,0.00,,---,0.00,26.00,VWS V14.01,2013-03-02 15:12:00,
2013-03-02 07:17:00,42.4,33.3,30.17,NNE,19,5.0,12.0,70,0.00,,---,0.00,26.00,VWS V14.01,2013-03-02 15:17:00,
2013-03-02 07:22:00,42.4,33.3,30.17,NNE,17,17.0,17.0,70,0.00,,---,0.00,32.00,VWS V14.01,2013-03-02 15:22:00,
2013-03-02 07:27:00,42.5,33.4,30.17,North,355,9.0,17.0,70,0.00,,---,0.00,35.00,VWS V14.01,2013-03-02 15:27:00,
2013-03-02 07:32:00,42.5,33.4,30.17,North,355,10.0,10.0,70,0.00,,---,0.00,40.00,VWS V14.01,2013-03-02 15:32:00,
2013-03-02 07:37:00,42.6,33.5,30.17,North,355,10.0,12.0,70,0.00,,---,0.00,44.00,VWS V14.01,2013-03-02 15:37:00,
2013-03-02 07:42:00,42.7,33.6,30.17,NE,42,11.0,12.0,70,0.00,,---,0.00,46.00,VWS V14.01,2013-03-02 15:42:00,
2013-03-02 07:47:00,42.9,33.4,30.17,NNE,18,9.0,14.0,69,0.00,,---,0.00,54.00,VWS V14.01,2013-03-02 15:47:00,
2013-03-02 07:52:00,43.2,33.7,30.17,NE,34,4.0,16.0,69,0.00,,---,0.00,56.00,VWS V14.01,2013-03-02 15:52:00,
2013-03-02 07:57:00,43.4,33.6,30.17,NE,53,6.0,16.0,68,0.00,,---,0.00,63.00,VWS V14.01,2013-03-02 15:57:00,
2013-03-02 08:02:00,43.6,33.8,30.16,NE,34,5.0,8.0,68,0.00,,---,0.00,72.00,VWS V14.01,2013-03-02 16:02:00,
2013-03-02 08:07:00,43.8,33.6,30.16,NNW,331,4.0,12.0,67,0.00,,---,0.00,79.00,VWS V14.01,2013-03-02 16:07:00,
2013-03-02 08:12:00,44.2,33.6,30.16,NNE,29,9.0,13.0,66,0.00,,---,0.00,84.00,VWS V14.01,2013-03-02 16:12:00,
2013-03-02 08:17:00,44.5,33.5,30.16,NNE,30,4.0,13.0,65,0.00,,---,0.00,86.00,VWS V14.01,2013-03-02 16:17:00,
2013-03-02 08:22:00,44.8,33.8,30.16,NE,41,5.0,13.0,65,0.00,,---,0.00,90.00,VWS V14.01,2013-03-02 16:22:00,
2013-03-02 08:27:00,45.1,33.7,30.16,NE,38,6.0,13.0,64,0.00,,---,0.00,98.00,VWS V14.01,2013-03-02 16:27:00,
2013-03-02 08:32:00,45.4,34.0,30.16,North,11,2.0,7.0,64,0.00,,---,0.00,104.00,VWS V14.01,2013-03-02 16:32:00,
2013-03-02 08:37:00,45.6,34.1,30.16,NNE,29,4.0,8.0,64,0.00,,---,0.00,109.00,VWS V14.01,2013-03-02 16:37:00,
2013-03-02 08:42:00,45.7,33.8,30.16,NE,35,5.0,10.0,63,0.00,,---,0.00,111.00,VWS V14.01,2013-03-02 16:42:00,
2013-03-02 08:47:00,45.8,33.5,30.16,NNE,33,6.0,10.0,62,0.00,,---,0.00,111.00,VWS V14.01,2013-03-02 16:47:00,
2013-03-02 08:52:00,45.9,33.6,30.16,North,360,5.0,11.0,62,0.00,,---,0.00,121.00,VWS V14.01,2013-03-02 16:52:00,
2013-03-02 08:57:00,46.0,33.7,30.17,North,9,4.0,11.0,62,0.00,,---,0.00,121.00,VWS V14.01,2013-03-02 16:57:00,
2013-03-02 09:02:00,46.0,34.1,30.17,NNE,30,6.0,9.0,63,0.00,,---,0.00,123.00,VWS V14.01,2013-03-02 17:02:00,
2013-03-02 09:07:00,46.1,33.8,30.16,NNW,340,6.0,10.0,62,0.00,,---,0.00,120.00,VWS V14.01,2013-03-02 17:07:00,
2013-03-02 09:12:00,46.1,33.8,30.16,North,355,5.0,12.0,62,0.00,,---,0.00,118.00,VWS V14.01,2013-03-02 17:12:00,
2013-03-02 09:17:00,46.1,33.8,30.16,North,5,7.0,12.0,62,0.00,,---,0.00,121.00,VWS V14.01,2013-03-02 17:17:00,
2013-03-02 09:22:00,46.2,33.9,30.16,NNE,23,4.0,12.0,62,0.00,,---,0.00,130.00,VWS V14.01,2013-03-02 17:22:00,
2013-03-02 09:27:00,46.2,33.9,30.17,North,350,9.0,12.0,62,0.00,,---,0.00,146.00,VWS V14.01,2013-03-02 17:27:00,
2013-03-02 09:32:00,46.3,34.0,30.16,NE,43,7.0,10.0,62,0.00,,---,0.00,165.00,VWS V14.01,2013-03-02 17:32:00,
2013-03-02 09:37:00,46.5,33.8,30.16,NE,38,4.0,11.0,61,0.00,,---,0.00,185.00,VWS V14.01,2013-03-02 17:37:00,
2013-03-02 09:42:00,46.8,34.1,30.17,ENE,66,8.0,11.0,61,0.00,,---,0.00,179.00,VWS V14.01,2013-03-02 17:42:00,
2013-03-02 09:47:00,47.0,34.3,30.17,North,355,3.0,11.0,61,0.00,,---,0.00,172.00,VWS V14.01,2013-03-02 17:47:00,
2013-03-02 09:52:00,47.2,34.9,30.17,NE,44,2.0,11.0,62,0.00,,---,0.00,181.00,VWS V14.01,2013-03-02 17:52:00,
2013-03-02 09:57:00,47.4,34.6,30.17,NE,50,4.0,11.0,61,0.00,,---,0.00,179.00,VWS V14.01,2013-03-02 17:57:00,
2013-03-02 10:02:00,47.6,34.8,30.17,North,5,2.0,4.0,61,0.00,,---,0.00,176.00,VWS V14.01,2013-03-02 18:02:00,
2013-03-02 10:07:00,47.9,34.7,30.17,NE,54,3.0,6.0,60,0.00,,---,0.00,179.00,VWS V14.01,2013-03-02 18:07:00,
2013-03-02 10:12:00,48.1,34.9,30.16,NE,40,4.0,6.0,60,0.00,,---,0.00,188.00,VWS V14.01,2013-03-02 18:12:00,
2013-03-02 10:17:00,48.4,35.6,30.16,NE,40,3.0,6.0,61,0.00,,---,0.00,188.00,VWS V14.01,2013-03-02 18:17:00,
2013-03-02 10:22:00,48.7,35.5,30.16,North,5,1.0,6.0,60,0.00,,---,0.00,200.00,VWS V14.01,2013-03-02 18:22:00,
2013-03-02 10:27:00,49.1,35.4,30.16,NE,38,2.0,6.0,59,0.00,,---,0.00,213.00,VWS V14.01,2013-03-02 18:27:00,
2013-03-02 10:32:00,49.4,35.3,30.16,NNE,33,2.0,3.0,58,0.00,,---,0.00,232.00,VWS V14.01,2013-03-02 18:32:00,
2013-03-02 10:37:00,49.8,34.8,30.16,ENE,67,3.0,5.0,56,0.00,,---,0.00,237.00,VWS V14.01,2013-03-02 18:37:00,
2013-03-02 10:42:00,50.1,34.6,30.16,NE,42,2.0,5.0,55,0.00,,---,0.00,244.00,VWS V14.01,2013-03-02 18:42:00,
2013-03-02 10:47:00,50.5,35.4,30.16,NE,51,4.0,5.0,56,0.00,,---,0.00,257.00,VWS V14.01,2013-03-02 18:47:00,
2013-03-02 10:52:00,50.9,34.9,30.16,NE,54,3.0,8.0,54,0.00,,---,0.00,276.00,VWS V14.01,2013-03-02 18:52:00,
2013-03-02 10:57:00,51.3,34.3,30.16,NE,48,3.0,8.0,52,0.00,,---,0.00,285.00,VWS V14.01,2013-03-02 18:57:00,
2013-03-02 11:02:00,51.7,34.2,30.16,NNE,15,1.0,5.0,51,0.00,,---,0.00,294.00,VWS V14.01,2013-03-02 19:02:00,
2013-03-02 11:07:00,52.1,34.5,30.15,NE,56,3.0,6.0,51,0.00,,---,0.00,297.00,VWS V14.01,2013-03-02 19:07:00,
2013-03-02 11:12:00,52.4,34.3,30.15,ENE,57,3.0,6.0,50,0.00,,---,0.00,304.00,VWS V14.01,2013-03-02 19:12:00,
2013-03-02 11:17:00,52.8,35.2,30.15,ENE,69,4.0,6.0,51,0.00,,---,0.00,338.00,VWS V14.01,2013-03-02 19:17:00,
2013-03-02 11:22:00,53.1,35.5,30.15,NE,50,5.0,7.0,51,0.00,,---,0.00,323.00,VWS V14.01,2013-03-02 19:22:00,
2013-03-02 11:27:00,53.3,35.7,30.15,NNE,28,5.0,7.0,51,0.00,,---,0.00,322.00,VWS V14.01,2013-03-02 19:27:00,
2013-03-02 11:32:00,53.5,35.8,30.14,ENE,66,3.0,5.0,51,0.00,,---,0.00,315.00,VWS V14.01,2013-03-02 19:32:00,
2013-03-02 11:37:00,53.7,35.5,30.14,NNE,14,3.0,7.0,50,0.00,,---,0.00,318.00,VWS V14.01,2013-03-02 19:37:00,
2013-03-02 11:42:00,53.9,36.2,30.14,North,5,4.0,7.0,51,0.00,,---,0.00,327.00,VWS V14.01,2013-03-02 19:42:00,
2013-03-02 11:47:00,54.1,36.4,30.14,NNE,27,4.0,7.0,51,0.00,,---,0.00,332.00,VWS V14.01,2013-03-02 19:47:00,
2013-03-02 11:52:00,54.2,36.5,30.14,NNE,31,4.0,7.0,51,0.00,,---,0.00,343.00,VWS V14.01,2013-03-02 19:52:00,
2013-03-02 11:57:00,54.4,36.7,30.13,North,360,3.0,7.0,51,0.00,,---,0.00,302.00,VWS V14.01,2013-03-02 19:57:00,
2013-03-02 12:02:00,54.7,36.9,30.13,NW,326,0.0,4.0,51,0.00,,---,0.00,329.00,VWS V14.01,2013-03-02 20:02:00,
2013-03-02 12:07:00,55.0,36.7,30.12,North,349,2.0,5.0,50,0.00,,---,0.00,366.00,VWS V14.01,2013-03-02 20:07:00,
2013-03-02 12:12:00,55.3,36.0,30.12,NE,52,0.0,5.0,48,0.00,,---,0.00,345.00,VWS V14.01,2013-03-02 20:12:00,
2013-03-02 12:17:00,55.7,36.3,30.12,NNE,29,3.0,7.0,48,0.00,,---,0.00,343.00,VWS V14.01,2013-03-02 20:17:00,
2013-03-02 12:22:00,55.8,35.9,30.12,North,351,5.0,8.0,47,0.00,,---,0.00,313.00,VWS V14.01,2013-03-02 20:22:00,
2013-03-02 12:27:00,55.8,35.9,30.12,North,360,5.0,8.0,47,0.00,,---,0.00,285.00,VWS V14.01,2013-03-02 20:27:00,
2013-03-02 12:32:00,55.7,35.3,30.12,NNE,23,4.0,7.0,46,0.00,,---,0.00,283.00,VWS V14.01,2013-03-02 20:32:00,
2013-03-02 12:37:00,55.5,35.6,30.12,NNE,32,2.0,7.0,47,0.00,,---,0.00,265.00,VWS V14.01,2013-03-02 20:37:00,
2013-03-02 12:42:00,55.5,35.6,30.11,NNE,28,5.0,7.0,47,0.00,,---,0.00,257.00,VWS V14.01,2013-03-02 20:42:00,
2013-03-02 12:47:00,55.4,35.5,30.12,North,355,3.0,8.0,47,0.00,,---,0.00,281.00,VWS V14.01,2013-03-02 20:47:00,
2013-03-02 12:52:00,55.4,35.5,30.11,NNW,329,4.0,8.0,47,0.00,,---,0.00,279.00,VWS V14.01,2013-03-02 20:52:00,
2013-03-02 12:57:00,55.4,35.5,30.11,NNE,13,1.0,8.0,47,0.00,,---,0.00,295.00,VWS V14.01,2013-03-02 20:57:00,
2013-03-02 13:02:00,55.4,34.4,30.11,WSW,241,0.0,3.0,45,0.00,,---,0.00,258.00,VWS V14.01,2013-03-02 21:02:00,
2013-03-02 13:07:00,55.3,34.9,30.11,NE,46,2.0,3.0,46,0.00,,---,0.00,258.00,VWS V14.01,2013-03-02 21:07:00,
2013-03-02 13:11:00,55.4,33.9,30.10,NE,55,0.0,3.0,44,0.00,,---,0.00,230.00,VWS V14.01,2013-03-02 21:11:00,
2013-03-02 13:16:00,55.5,34.0,30.10,West,272,0.0,3.0,44,0.00,,---,0.00,255.00,VWS V14.01,2013-03-02 21:16:00,
2013-03-02 13:21:00,55.7,34.1,30.10,West,261,0.0,3.0,44,0.00,,---,0.00,239.00,VWS V14.01,2013-03-02 21:21:00,
2013-03-02 13:27:00,55.9,34.3,30.10,SSE,165,1.0,3.0,44,0.00,,---,0.00,236.00,VWS V14.01,2013-03-02 21:27:00,
2013-03-02 13:32:00,56.1,35.1,30.10,SSW,192,5.0,5.0,45,0.00,,---,0.00,230.00,VWS V14.01,2013-03-02 21:32:00,
2013-03-02 13:37:00,56.3,34.7,30.11,SSE,165,3.0,6.0,44,0.00,,---,0.00,237.00,VWS V14.01,2013-03-02 21:37:00,
2013-03-02 13:42:00,56.3,33.5,30.11,SSE,153,3.0,10.0,42,0.00,,---,0.00,271.00,VWS V14.01,2013-03-02 21:42:00,
2013-03-02 13:47:00,56.3,33.5,30.11,SSE,152,4.0,10.0,42,0.00,,---,0.00,271.00,VWS V14.01,2013-03-02 21:47:00,
2013-03-02 13:52:00,56.3,33.5,30.11,South,175,1.0,10.0,42,0.00,,---,0.00,265.00,VWS V14.01,2013-03-02 21:52:00,
2013-03-02 13:57:00,56.3,32.9,30.11,South,169,3.0,10.0,41,0.00,,---,0.00,258.00,VWS V14.01,2013-03-02 21:57:00,
2013-03-02 14:02:00,56.3,32.9,30.11,SW,234,0.0,3.0,41,0.00,,---,0.00,264.00,VWS V14.01,2013-03-02 22:02:00,
2013-03-02 14:07:00,56.3,32.9,30.11,SW,235,3.0,3.0,41,0.00,,---,0.00,274.00,VWS V14.01,2013-03-02 22:07:00,
2013-03-02 14:12:00,55.8,31.9,30.11,SSE,156,2.0,3.0,40,0.00,,---,0.00,253.00,VWS V14.01,2013-03-02 22:12:00,
2013-03-02 14:17:00,55.8,32.5,30.11,SSW,213,1.0,3.0,41,0.00,,---,0.00,255.00,VWS V14.01,2013-03-02 22:17:00,
2013-03-02 14:22:00,55.9,32.0,30.11,SSW,199,0.0,3.0,40,0.00,,---,0.00,267.00,VWS V14.01,2013-03-02 22:22:00,
2013-03-02 14:27:00,56.0,32.0,30.11,South,188,1.0,4.0,40,0.00,,---,0.00,237.00,VWS V14.01,2013-03-02 22:27:00,
2013-03-02 14:32:00,56.1,31.5,30.11,East,93,9.0,9.0,39,0.00,,---,0.00,236.00,VWS V14.01,2013-03-02 22:32:00,
2013-03-02 14:37:00,56.2,30.3,30.11,SE,134,11.0,13.0,37,0.00,,---,0.00,195.00,VWS V14.01,2013-03-02 22:37:00,
2013-03-02 14:42:00,55.6,30.4,30.11,East,94,14.0,15.0,38,0.00,,---,0.00,234.00,VWS V14.01,2013-03-02 22:42:00,
2013-03-02 14:47:00,55.0,29.9,30.11,East,82,13.0,15.0,38,0.00,,---,0.00,225.00,VWS V14.01,2013-03-02 22:47:00,
2013-03-02 14:52:00,54.7,30.2,30.10,ENE,68,14.0,15.0,39,0.00,,---,0.00,206.00,VWS V14.01,2013-03-02 22:52:00,
2013-03-02 14:57:00,54.4,30.0,30.10,ENE,61,7.0,16.0,39,0.00,,---,0.00,209.00,VWS V14.01,2013-03-02 22:57:00,
2013-03-02 15:02:00,54.4,30.0,30.10,ENE,60,8.0,15.0,39,0.00,,---,0.00,199.00,VWS V14.01,2013-03-02 23:02:00,
2013-03-02 15:07:00,54.4,30.0,30.11,ENE,71,9.0,15.0,39,0.00,,---,0.00,186.00,VWS V14.01,2013-03-02 23:07:00,
2013-03-02 15:12:00,54.2,30.4,30.10,NNE,24,3.0,15.0,40,0.00,,---,0.00,176.00,VWS V14.01,2013-03-02 23:12:00,
2013-03-02 15:17:00,54.1,29.7,30.10,ENE,76,9.0,15.0,39,0.00,,---,0.00,151.00,VWS V14.01,2013-03-02 23:17:00,
2013-03-02 15:22:00,54.0,30.2,30.10,NE,51,7.0,15.0,40,0.00,,---,0.00,144.00,VWS V14.01,2013-03-02 23:22:00,
2013-03-02 15:27:00,53.9,30.8,30.10,NE,55,4.0,15.0,41,0.00,,---,0.00,142.00,VWS V14.01,2013-03-02 23:27:00,
2013-03-02 15:32:00,53.8,30.1,30.10,ENE,74,7.0,10.0,40,0.00,,---,0.00,132.00,VWS V14.01,2013-03-02 23:32:00,
2013-03-02 15:37:00,53.5,29.8,30.10,East,89,9.0,13.0,40,0.00,,---,0.00,113.00,VWS V14.01,2013-03-02 23:37:00,
2013-03-02 15:42:00,53.3,29.6,30.10,ENE,59,7.0,13.0,40,0.00,,---,0.00,116.00,VWS V14.01,2013-03-02 23:42:00,
2013-03-02 15:47:00,53.1,28.8,30.10,East,96,8.0,13.0,39,0.00,,---,0.00,113.00,VWS V14.01,2013-03-02 23:47:00,
2013-03-02 15:52:00,53.0,28.7,30.10,East,95,7.0,13.0,39,0.00,,---,0.00,91.00,VWS V14.01,2013-03-02 23:52:00,
2013-03-02 15:57:00,52.8,28.5,30.10,NE,49,5.0,13.0,39,0.00,,---,0.00,93.00,VWS V14.01,2013-03-02 23:57:00,
2013-03-02 16:02:00,52.7,28.5,30.09,ENE,71,12.0,12.0,39,0.00,,---,0.00,97.00,VWS V14.01,2013-03-03 00:02:00,
2013-03-02 16:07:00,52.6,27.7,30.10,NE,46,8.0,15.0,38,0.00,,---,0.00,72.00,VWS V14.01,2013-03-03 00:07:00,
2013-03-02 16:12:00,52.5,27.6,30.10,ESE,103,7.0,15.0,38,0.00,,---,0.00,69.00,VWS V14.01,2013-03-03 00:12:00,
2013-03-02 16:17:00,52.4,28.2,30.10,ENE,57,10.0,15.0,39,0.00,,---,0.00,56.00,VWS V14.01,2013-03-03 00:17:00,
2013-03-02 16:22:00,52.2,28.0,30.10,ENE,62,11.0,15.0,39,0.00,,---,0.00,67.00,VWS V14.01,2013-03-03 00:22:00,
2013-03-02 16:27:00,52.0,28.5,30.10,East,97,6.0,17.0,40,0.00,,---,0.00,65.00,VWS V14.01,2013-03-03 00:27:00,
2013-03-02 16:32:00,51.8,29.5,30.09,ENE,74,7.0,9.0,42,0.00,,---,0.00,63.00,VWS V14.01,2013-03-03 00:32:00,
2013-03-02 16:36:00,51.6,29.9,30.09,East,96,8.0,9.0,43,0.00,,---,0.00,62.00,VWS V14.01,2013-03-03 00:36:00,
2013-03-02 16:41:00,51.5,30.3,30.09,NE,49,7.0,10.0,44,0.00,,---,0.00,53.00,VWS V14.01,2013-03-03 00:41:00,
2013-03-02 16:46:00,51.3,29.6,30.09,ENE,78,8.0,15.0,43,0.00,,---,0.00,51.00,VWS V14.01,2013-03-03 00:46:00,
2013-03-02 16:51:00,51.1,29.4,30.09,ENE,62,2.0,15.0,43,0.00,,---,0.00,49.00,VWS V14.01,2013-03-03 00:51:00,
2013-03-02 16:56:00,51.0,29.9,30.09,ENE,67,2.0,15.0,44,0.00,,---,0.00,42.00,VWS V14.01,2013-03-03 00:56:00,
2013-03-02 17:01:00,50.9,29.8,30.09,East,80,2.0,7.0,44,0.00,,---,0.00,37.00,VWS V14.01,2013-03-03 01:01:00,
2013-03-02 17:06:00,50.8,29.7,30.09,NNE,24,3.0,7.0,44,0.00,,---,0.00,32.00,VWS V14.01,2013-03-03 01:06:00,
2013-03-02 17:11:00,50.7,29.6,30.09,ENE,70,1.0,7.0,44,0.00,,---,0.00,30.00,VWS V14.01,2013-03-03 01:11:00,
2013-03-02 17:16:00,50.6,30.1,30.09,East,101,0.0,7.0,45,0.00,,---,0.00,26.00,VWS V14.01,2013-03-03 01:16:00,
2013-03-02 17:21:00,50.5,30.0,30.09,East,94,0.0,7.0,45,0.00,,---,0.00,23.00,VWS V14.01,2013-03-03 01:21:00,
2013-03-02 17:26:00,50.5,30.5,30.09,NNE,24,0.0,7.0,46,0.00,,---,0.00,19.00,VWS V14.01,2013-03-03 01:26:00,
2013-03-02 17:31:00,50.3,30.3,30.10,East,95,2.0,3.0,46,0.00,,---,0.00,16.00,VWS V14.01,2013-03-03 01:31:00,
2013-03-02 17:36:00,50.1,30.7,30.10,SE,131,8.0,9.0,47,0.00,,---,0.00,12.00,VWS V14.01,2013-03-03 01:36:00,
2013-03-02 17:41:00,49.7,32.3,30.10,SE,144,8.0,10.0,51,0.00,,---,0.00,7.00,VWS V14.01,2013-03-03 01:41:00,
2013-03-02 17:46:00,49.1,32.7,30.10,ESE,103,8.0,13.0,53,0.00,,---,0.00,0.00,VWS V14.01,2013-03-03 01:46:00,
2013-03-02 17:51:00,48.7,32.8,30.10,ENE,66,7.0,13.0,54,0.00,,---,0.00,0.00,VWS V14.01,2013-03-03 01:51:00,
2013-03-02 17:56:00,48.3,32.9,30.10,ENE,59,7.0,13.0,55,0.00,,---,0.00,0.00,VWS V14.01,2013-03-03 01:56:00,
2013-03-02 18:01:00,47.9,33.0,30.10,ESE,104,5.0,7.0,56,0.00,,---,0.00,0.00,VWS V14.01,2013-03-03 02:01:00,
2013-03-02 18:06:00,47.7,32.8,30.10,ENE,59,4.0,14.0,56,0.00,,---,0.00,0.00,VWS V14.01,2013-03-03 02:06:00,
2013-03-02 18:11:00,47.6,32.7,30.10,East,86,8.0,14.0,56,0.00,,---,0.00,0.00,VWS V14.01,2013-03-03 02:11:00,
2013-03-02 18:16:00,47.4,33.0,30.10,NE,35,6.0,14.0,57,0.00,,---,0.00,0.00,VWS V14.01,2013-03-03 02:16:00,
2013-03-02 18:21:00,47.3,33.7,30.10,East,80,5.0,14.0,59,0.00,,---,0.00,0.00,VWS V14.01,2013-03-03 02:21:00,
2013-03-02 18:26:00,47.0,33.8,30.10,ENE,78,3.0,14.0,60,0.00,,---,0.00,0.00,VWS V14.01,2013-03-03 02:26:00,
2013-03-02 18:31:00,46.8,33.7,30.10,East,81,3.0,7.0,60,0.00,,---,0.00,0.00,VWS V14.01,2013-03-03 02:31:00,
2013-03-02 18:36:00,46.7,34.0,30.10,NE,49,4.0,8.0,61,0.00,,---,0.00,0.00,VWS V14.01,2013-03-03 02:36:00,
2013-03-02 18:41:00,46.5,33.8,30.09,NE,42,3.0,8.0,61,0.00,,---,0.00,0.00,VWS V14.01,2013-03-03 02:41:00,
2013-03-02 18:46:00,46.4,34.1,30.09,ENE,57,5.0,8.0,62,0.00,,---,0.00,0.00,VWS V14.01,2013-03-03 02:46:00,
2013-03-02 18:51:00,46.2,33.9,30.09,NE,37,4.0,8.0,62,0.00,,---,0.00,0.00,VWS V14.01,2013-03-03 02:51:00,
2013-03-02 18:56:00,46.0,33.7,30.09,East,83,3.0,8.0,62,0.00,,---,0.00,0.00,VWS V14.01,2013-03-03 02:56:00,
2013-03-02 19:01:00,46.0,33.7,30.10,ENE,57,2.0,5.0,62,0.00,,---,0.00,0.00,VWS V14.01,2013-03-03 03:01:00,
2013-03-02 19:06:00,46.0,33.7,30.10,North,360,7.0,9.0,62,0.00,,---,0.00,0.00,VWS V14.01,2013-03-03 03:06:00,
2013-03-02 19:11:00,45.8,33.9,30.10,ENE,64,4.0,9.0,63,0.00,,---,0.00,0.00,VWS V14.01,2013-03-03 03:11:00,
2013-03-02 19:16:00,45.7,33.8,30.10,East,88,2.0,9.0,63,0.00,,---,0.00,0.00,VWS V14.01,2013-03-03 03:16:00,
2013-03-02 19:21:00,45.6,34.1,30.10,ENE,65,2.0,9.0,64,0.00,,---,0.00,0.00,VWS V14.01,2013-03-03 03:21:00,
2013-03-02 19:26:00,45.6,34.1,30.10,ENE,76,3.0,9.0,64,0.00,,---,0.00,0.00,VWS V14.01,2013-03-03 03:26:00,
2013-03-02 19:31:00,45.5,34.0,30.10,ENE,76,2.0,3.0,64,0.00,,---,0.00,0.00,VWS V14.01,2013-03-03 03:31:00,
2013-03-02 19:36:00,45.5,34.0,30.10,NE,38,2.0,5.0,64,0.00,,---,0.00,0.00,VWS V14.01,2013-03-03 03:36:00,
2013-03-02 19:41:00,45.4,34.3,30.10,NNE,30,2.0,5.0,65,0.00,,---,0.00,0.00,VWS V14.01,2013-03-03 03:41:00,
2013-03-02 19:46:00,45.2,34.2,30.10,North,5,3.0,6.0,65,0.00,,---,0.00,0.00,VWS V14.01,2013-03-03 03:46:00,
2013-03-02 19:51:00,45.1,34.0,30.09,NE,36,3.0,7.0,65,0.00,,---,0.00,0.00,VWS V14.01,2013-03-03 03:51:00,
2013-03-02 19:56:00,44.9,33.9,30.09,NNE,15,4.0,8.0,65,0.00,,---,0.00,0.00,VWS V14.01,2013-03-03 03:56:00,
2013-03-02 20:01:00,44.8,34.2,30.09,NNE,30,2.0,8.0,66,0.00,,---,0.00,0.00,VWS V14.01,2013-03-03 04:01:00,
2013-03-02 20:06:00,44.7,34.0,30.09,NE,35,5.0,8.0,66,0.00,,---,0.00,0.00,VWS V14.01,2013-03-03 04:06:00,
2013-03-02 20:11:00,44.6,34.0,30.09,NNE,30,9.0,9.0,66,0.00,,---,0.00,0.00,VWS V14.01,2013-03-03 04:11:00,
2013-03-02 20:16:00,44.5,33.9,30.09,NNE,28,5.0,9.0,66,0.00,,---,0.00,0.00,VWS V14.01,2013-03-03 04:16:00,
2013-03-02 20:21:00,44.4,34.1,30.09,NNE,27,4.0,9.0,67,0.00,,---,0.00,0.00,VWS V14.01,2013-03-03 04:21:00,
2013-03-02 20:26:00,44.3,34.0,30.09,NNE,13,6.0,9.0,67,0.00,,---,0.00,0.00,VWS V14.01,2013-03-03 04:26:00,
2013-03-02 20:31:00,44.2,33.6,30.09,NNE,26,5.0,6.0,66,0.00,,---,0.00,0.00,VWS V14.01,2013-03-03 04:31:00,
2013-03-02 20:36:00,44.2,34.0,30.09,NNE,12,5.0,7.0,67,0.00,,---,0.00,0.00,VWS V14.01,2013-03-03 04:36:00,
2013-03-02 20:41:00,44.0,33.8,30.08,NNE,28,5.0,9.0,67,0.00,,---,0.00,0.00,VWS V14.01,2013-03-03 04:41:00,
2013-03-02 20:46:00,43.9,33.7,30.08,NNW,342,4.0,9.0,67,0.00,,---,0.00,0.00,VWS V14.01,2013-03-03 04:46:00,
2013-03-02 20:51:00,43.7,33.5,30.08,North,355,4.0,9.0,67,0.00,,---,0.00,0.00,VWS V14.01,2013-03-03 04:51:00,
2013-03-02 20:56:00,43.5,34.0,30.08,NNE,19,3.0,9.0,69,0.00,,---,0.00,0.00,VWS V14.01,2013-03-03 04:56:00,
2013-03-02 21:00:00,43.3,33.8,30.08,NNW,345,1.0,9.0,69,0.00,,---,0.00,0.00,VWS V14.01,2013-03-03 05:00:00,
2013-03-02 21:05:00,43.1,34.0,30.09,North,5,3.0,5.0,70,0.00,,---,0.00,0.00,VWS V14.01,2013-03-03 05:05:00,
2013-03-02 21:10:00,42.8,33.3,30.08,North,9,2.0,5.0,69,0.00,,---,0.00,0.00,VWS V14.01,2013-03-03 05:10:00,
2013-03-02 21:15:00,42.6,33.5,30.08,North,355,3.0,7.0,70,0.00,,---,0.00,0.00,VWS V14.01,2013-03-03 05:15:00,
2013-03-02 21:20:00,42.3,33.2,30.08,North,355,4.0,7.0,70,0.00,,---,0.00,0.00,VWS V14.01,2013-03-03 05:20:00,
2013-03-02 21:25:00,42.1,32.7,30.08,North,355,3.0,7.0,69,0.00,,---,0.00,0.00,VWS V14.01,2013-03-03 05:25:00,
2013-03-02 21:30:00,42.0,32.6,30.08,NNE,26,1.0,3.0,69,0.00,,---,0.00,0.00,VWS V14.01,2013-03-03 05:30:00,
2013-03-02 21:35:00,41.8,32.4,30.08,North,5,5.0,5.0,69,0.00,,---,0.00,0.00,VWS V14.01,2013-03-03 05:35:00,
2013-03-02 21:40:00,41.7,32.3,30.08,NNE,23,4.0,6.0,69,0.00,,---,0.00,0.00,VWS V14.01,2013-03-03 05:40:00,
2013-03-02 21:45:00,41.6,32.2,30.08,NNW,346,3.0,6.0,69,0.00,,---,0.00,0.00,VWS V14.01,2013-03-03 05:45:00,
2013-03-02 21:50:00,41.6,32.2,30.08,NNE,27,6.0,10.0,69,0.00,,---,0.00,0.00,VWS V14.01,2013-03-03 05:50:00,
2013-03-02 21:55:00,41.8,32.0,30.08,NNE,17,4.0,10.0,68,0.00,,---,0.00,0.00,VWS V14.01,2013-03-03 05:55:00,
2013-03-02 22:00:00,41.9,31.8,30.08,NNE,13,9.0,14.0,67,0.00,,---,0.00,0.00,VWS V14.01,2013-03-03 06:00:00,
2013-03-02 22:05:00,42.1,32.0,30.08,ENE,74,8.0,13.0,67,0.00,,---,0.00,0.00,VWS V14.01,2013-03-03 06:05:00,
2013-03-02 22:10:00,42.3,31.8,30.08,NNE,25,9.0,13.0,66,0.00,,---,0.00,0.00,VWS V14.01,2013-03-03 06:10:00,
2013-03-02 22:15:00,42.4,31.9,30.08,NNE,28,8.0,14.0,66,0.00,,---,0.00,0.00,VWS V14.01,2013-03-03 06:15:00,
2013-03-02 22:20:00,42.4,31.9,30.09,NNE,13,5.0,14.0,66,0.00,,---,0.00,0.00,VWS V14.01,2013-03-03 06:20:00,
2013-03-02 22:25:00,42.3,31.8,30.08,NE,55,13.0,14.0,66,0.00,,---,0.00,0.00,VWS V14.01,2013-03-03 06:25:00,
2013-03-02 22:30:00,42.2,32.0,30.08,NNE,19,6.0,6.0,67,0.00,,---,0.00,0.00,VWS V14.01,2013-03-03 06:30:00,
2013-03-02 22:35:00,42.0,31.9,30.08,NE,49,7.0,12.0,67,0.00,,---,0.00,0.00,VWS V14.01,2013-03-03 06:35:00,
2013-03-02 22:40:00,41.8,32.0,30.08,ENE,59,4.0,12.0,68,0.00,,---,0.00,0.00,VWS V14.01,2013-03-03 06:40:00,
2013-03-02 22:45:00,41.6,32.2,30.08,NNE,32,5.0,12.0,69,0.00,,---,0.00,0.00,VWS V14.01,2013-03-03 06:45:00,
2013-03-02 22:50:00,41.4,32.0,30.08,NNE,25,6.0,12.0,69,0.00,,---,0.00,0.00,VWS V14.01,2013-03-03 06:50:00,
2013-03-02 22:55:00,41.3,32.3,30.08,NE,45,8.0,12.0,70,0.00,,---,0.00,0.00,VWS V14.01,2013-03-03 06:55:00,
2013-03-02 23:00:00,41.1,32.4,30.08,NE,40,7.0,8.0,71,0.00,,---,0.00,0.00,VWS V14.01,2013-03-03 07:00:00,
2013-03-02 23:05:00,41.1,32.4,30.08,NNE,28,6.0,11.0,71,0.00,,---,0.00,0.00,VWS V14.01,2013-03-03 07:05:00,
2013-03-02 23:10:00,41.0,32.7,30.08,NNE,30,3.0,11.0,72,0.00,,---,0.00,0.00,VWS V14.01,2013-03-03 07:10:00,
2013-03-02 23:15:00,40.8,32.5,30.08,ENE,57,7.0,11.0,72,0.00,,---,0.00,0.00,VWS V14.01,2013-03-03 07:15:00,
2013-03-02 23:20:00,40.6,32.6,30.08,NNE,29,4.0,11.0,73,0.00,,---,0.00,0.00,VWS V14.01,2013-03-03 07:20:00,
2013-03-02 23:25:00,40.5,32.5,30.08,NE,51,3.0,11.0,73,0.00,,---,0.00,0.00,VWS V14.01,2013-03-03 07:25:00,
2013-03-02 23:30:00,40.3,32.3,30.08,SE,139,1.0,11.0,73,0.00,,---,0.00,0.00,VWS V14.01,2013-03-03 07:30:00,
2013-03-02 23:35:00,40.1,32.5,30.08,East,90,1.0,3.0,74,0.00,,---,0.00,0.00,VWS V14.01,2013-03-03 07:35:00,
2013-03-02 23:40:00,40.0,32.4,30.08,NNE,21,2.0,3.0,74,0.00,,---,0.00,0.00,VWS V14.01,2013-03-03 07:40:00,
2013-03-02 23:45:00,39.8,32.5,30.08,ENE,65,2.0,5.0,75,0.00,,---,0.00,0.00,VWS V14.01,2013-03-03 07:45:00,
2013-03-02 23:50:00,39.7,32.4,30.08,East,92,0.0,5.0,75,0.00,,---,0.00,0.00,VWS V14.01,2013-03-03 07:50:00,
2013-03-02 23:55:00,39.4,32.2,30.08,NNE,31,2.0,5.0,75,0.00,,---,0.00,0.00,VWS V14.01,2013-03-03 07:55:00,